User: anonymous   Login
Location: Pardubice
(50.0330°N, 15.7830°E)
Time: 07:59:49
(UTC+01:00)
Language:

ISS - Orbit

View from above orbital plane
View from above orbital plane
View from above satellite
View from above satellite

Ground track
Ground track

The orbit data is extracted from the following two-line orbital elements,

1 25544U 98067A   20300.17230736  .00001441  00000-0  33928-4 0  9993
2 25544  51.6451  60.3442 0001693  62.3330 359.4699 15.49335262252328
Epoch (UTC): 26 October 2020 04:08:07
Eccentricity: 0.0001693
inclination: 51.6451°
perigee height: 417 km
apogee height: 420 km
right ascension of ascending node: 60.3442°
argument of perigee: 62.3330°
revolutions per day: 15.49335262
mean anomaly at epoch: 359.4699°
orbit number at epoch: 25232

The dashed part of the orbit path shows where the satellite is in the earth's shadow,  

DLR